Flag for U.S.A. Weather past 2 weeks in Shreveport, Louisiana, U.S.A.

Now
79 °F

Thunderstorms. Fog.


Feels Like: 83 °F
Forecast: 71 / 86 °F
Wind: 17 mph from Southeast

Location: Shreveport Regional Airport

Current Time: Oct 1, 2014 at 4:11:17 PM

Latest Report: Oct 1, 2014 at 3:56 PM


Visibility: 6 mi

Pressure: 29.80 "Hg

Humidity: 88%

Dew point: 75 °F

Location of ShreveportLocation

Historic Weather in Shreveport — Graph

°F

Shreveport temperature yesterday

Maximum temperature yesterday: 91 °F (at 2:56 PM)
Minimum temperature yesterday: 68 °F (at 6:56 AM)
Average temperature yesterday: 79 °F

Past Weeks' High & Low Weather Summary

 TemperatureHumidityPressure
High95 °F (Sep 21, 3:56 PM)94% (Sep 17, 2:56 AM)30.19 "Hg (Sep 17, 2:56 AM)
Low53 °F (Sep 24, 4:56 AM)27% (Sep 22, 3:56 PM)29.77 "Hg (Sep 30, 5:56 PM)
Average77 °F65%30.00 "Hg
* Reported Sep 16 2:56 PM — Oct 1 2:56 PM, Shreveport, Weather by CustomWeather, © 2014

Note: Actual official high and low records may vary slightly from our data, if they occured in-between our weather recording intervals... More about our weather records

Advertising

Shreveport weather history for previous 24 hours

 ConditionsComfort  
Time TempWeatherWind HumidityBarometerVisibility
2:56 PM
Oct 1
87 °FMostly cloudy.14 mph61%29.79 "Hg10 mi
1:56 PM85 °FCloudy.12 mph68%29.81 "Hg10 mi
12:56 PM83 °FLight rain. Mostly cloudy.7 mph77%29.84 "Hg10 mi
11:56 AM84 °FScattered clouds.8 mph67%29.86 "Hg10 mi
10:56 AM83 °FPartly sunny.10 mph72%29.87 "Hg7 mi
9:56 AM76 °FFog.7 mph91%29.87 "Hg4 mi
8:56 AM75 °FFog.9 mph94%29.85 "Hg6 mi
7:56 AM74 °FFog.5 mph94%29.84 "Hg5 mi
6:56 AM74 °FPassing clouds.6 mph94%29.83 "Hg8 mi
5:56 AM73 °FPassing clouds.7 mph94%29.83 "Hg10 mi
4:56 AM74 °FPassing clouds.5 mph88%29.83 "Hg10 mi
3:56 AM75 °FPartly cloudy.5 mph85%29.82 "Hg10 mi
2:56 AM75 °FPartly cloudy.3 mph85%29.81 "Hg10 mi
1:56 AM76 °FPassing clouds.6 mph82%29.80 "Hg10 mi
12:56 AM77 °FPassing clouds.6 mph79%29.80 "Hg10 mi
11:56 PM
Sep 30
75 °FPassing clouds.7 mph82%29.80 "Hg10 mi
10:56 PM77 °FPassing clouds.3 mph74%29.81 "Hg10 mi
9:56 PM79 °FPassing clouds.5 mph69%29.81 "Hg10 mi
8:56 PM80 °FPassing clouds.3 mph67%29.80 "Hg10 mi
7:56 PM82 °FScattered clouds.5 mph60%29.79 "Hg10 mi
6:56 PM85 °FScattered clouds.7 mph53%29.78 "Hg10 mi
5:56 PM88 °FPartly sunny.9 mph46%29.77 "Hg10 mi
4:56 PM88 °FPartly sunny.10 mph46%29.78 "Hg10 mi
Weather by CustomWeather, © 2014

See weather overviewHow to use our weather pages